吉林一号04星 (JILIN-1 04)

导读

JILIN-01-04是中国吉林一号卫星星座成员,于2017年11月21日发射入轨。该卫星继承吉林一号系列遥感卫星优势,具备高分辨率对地观测能力,可为农业监测、国土资源调查、城市规划、生态环境监测等多个领域提供精准遥感数据服务,助力商业航天产业发展。

基本信息
目录编号:
43022
目录名称:
JILIN-01-04
国际标识:
2017-074A
轨道中心:
EARTH
卫星名称:
吉林一号04星
卫星全名:
吉林一号04星 (JILIN-1 04)
卫星状态:
在轨 (已飞行3125 天)
发射日期:
2017-11-21 UTC
国别 :
中国 (CN)
星等 :
--
轨道信息
数据来源 国际轨道数据
星历时间: 2026-06-12T14:50:53+0800
13小时前
查看轨道信息
半长轴: 6817.393km
偏心率: 0.0003733
轨道倾角: 97.485°
近地点辐角 194.783°
升交点赤经 272.768°
平近点角 165.331°
近地点: 436.711km
远地点: 441.801km
周期: 93.366分钟
每日圈数: 15.423229
详细信息
平衡模式:
三轴稳定
覆盖范围:
全球
运营商:
长光卫星技术股份有限公司
运营商所在国:
中国
制造商(研发单位):
长光卫星技术股份有限公司
制造商所在国:
中国
使用方式:
暂无
卫星简介
“吉林一号”卫星星座(JiLin-1)是长光卫星技术有限公司在建的核心工程,是我国目前最大的商业遥感卫星星座,具备了较强的服务能力。该卫星仍在工作。
2D轨道图
3D轨道图
轨道高度分析图
轨道倾角分析图
轨道综合分析图
查看轨道综合分析图